Location: Gazon
(48.1318°N, 1.2708°W)
Time: 22:37:16
(UTC+00:00)

Meteor 1-15 Rocket - Pass Details

Date: 18 September 2020
Orbit: 840 x 907 km, 81.2° (Epoch: 24 October)

Event Time Altitude Azimuth Distance (km) Brightness Sun altitude
Rises 19:50:46 0° 175° (S) 3,393 7.1 -17.1°
Reaches altitude 10° 19:53:12 10° 171° (S) 2,468 6.3 -17.5°
Maximum altitude 19:58:38 55° 95° (E) 1,030 4.3 -18.3°
Drops below altitude 10° 20:04:12 10° 19° (NNE) 2,525 6.7 -19.1°
Sets 20:06:42 0° 16° (NNE) 3,477 7.5 -19.5°
